Weather in Temizhbekskaya

Russia / Krasnodar Krai     45°26′39″N   40°50′35″E
temp.,
°C
wind,
m/s
gust,
m/s
humid.,
%
clouds,
%
prec.,
mm/h
press.,
hPa
HPBL,
m
13 may, thu
thu1300:00+11e47870 0.0 101394
03:00+10ese47840 0.0 101298
06:00+10sse23880 0.0 101369
09:00+17se22720 0.0 1013295
12:00+22e22585 0.0 1013672
15:00+24e456098 0.0 1012916
18:00+21ene4878100 0.0 1012184
21:00+17e413842 0.0 1012212
14 may, fri
fri1400:00+15ese411803 0.0 1012180
03:00+14ese48820 0.0 1011118
06:00+14ese35875 0.0 101293
09:00+22ese34705 0.0 1011273
12:00+27e46605 0.0 1011550
15:00+29e35560 0.0 1010858
18:00+26e36765 0.0 1010128
21:00+21ese348955 0.0 101159
15 may, sat
sat1500:00+19s2286100 0.0 101115
03:00+18wsw34951 0.0 101267
06:00+17w379612 0.0 1013187
09:00+21w347610 0.0 1014495
12:00+24wnw33685 0.0 1014711
15:00+26n33645 0.0 1013842
18:00+25nnw12743 0.0 1013568
21:00+21n228563 0.2 101211
16 may, sun
sun1600:00+19ne349388 0.0 101159
03:00+17ene33935 0.0 101145
06:00+18ene228978 0.0 101049
09:00+23ne237678 0.0 1009403
12:00+26ene4569100 0.0 1008938
15:00+27ene5765100 0.0 10071104
18:00+25ene487794 0.0 1006239
21:00+20ene4976100 0.0 1005135
17 may, mon
mon1700:00+18e512575 0.0 1004236
03:00+15ene48671 0.0 1004143
06:00+15e36800 0.0 1004107
09:00+22se227672 0.0 1005411
12:00+26wnw336919 0.0 1006959
15:00+25nw5567100 0.0 10081311
18:00+19sw3779100 0.6 1010215
21:00+18w3483100 1.0 101072